Погода в Монтре

Швейцария     46°25′52″N   6°54′38″E
темп.,
°C
ветер,
м/с
пор.,
м/с
влажн.,
%
обл.,
%
осадки,
мм/ч
давл.,
гПа
погр.,
м
11 мая, вт
вт1123:00+8ююз1298100 0.3 101087
02:00+8с1199100 1.7 1010113
05:00+7ю1199100 0.6 1009107
08:00+7всв1298100 8.2 1009131
11:00+7з23100100 6.1 1009315
14:00+6ю1296100 17.8 1011366
17:00+7ююв1293100 3.6 1011287
20:00+5зюз2399100 6.4 1013241
12 мая, ср
ср1223:00+4юз2499100 8.8 1016493
02:00+4ююв1198100 13.2 1017426
05:00+4з0199100 0.9 1016237
08:00+4зсз1195100 2.0 1015193
11:00+5с019492 0.6 1014460
14:00+9ссз217685 1.3 10111023
17:00+8сз228871 1.6 1011533
20:00+6с119596 3.1 101233
13 мая, чт
чт1323:00+3юв229340 0.1 101320
02:00+2юв22955 0.1 101328
05:00+1юв229467 0.0 101226
08:00+4з2398100 0.5 1012382
11:00+3з23100100 4.3 1013475
14:00+4з239999 5.8 1013397
17:00+7юз126697 0.2 1010874
20:00+6ююв017440 0.2 101010
14 мая, пт
пт1423:00+1юв22875 0.0 101325
02:000юв22905 0.0 101331
05:000юв22915 0.0 101229
08:00+4ююв117323 0.0 1011177
11:00+8зсз216662 0.3 10101157
14:00+7сз227764 1.3 1010678
17:00+8сз227595 1.9 1010886
20:00+6з118884 3.1 101116
15 мая, сб
сб1523:00+2ююв229568 0.3 101421
02:00+1ююв229663 0.5 101526
05:00+3ююз239799 0.4 1015226
08:00+4ю238897 0.6 1014254
11:00+7з237598 0.1 1012945
14:00+9з2368100 0.3 10111022
17:00+8зюз2477100 0.2 1010864
20:00+6ю2496100 1.4 1011249